Year,Month,Day,Hour,Minute,Value (Times are PST for windspeed in km/hr)
2010,06,01,00,00,4.10
2010,06,01,00,01,5.90
2010,06,01,00,02,6.30
2010,06,01,00,03,6.70
2010,06,01,00,04,3.20
2010,06,01,00,05,1.70
2010,06,01,00,06,2.70
2010,06,01,00,07,0.80
2010,06,01,00,08,2.90
2010,06,01,00,09,2.90
2010,06,01,00,10,1.20
2010,06,01,00,11,3.80
2010,06,01,00,12,2.90
2010,06,01,00,13,3.00
2010,06,01,00,14,0.80
2010,06,01,00,15,0.10
2010,06,01,00,16,0.20
2010,06,01,00,17,1.70
2010,06,01,00,18,0.50
2010,06,01,00,19,4.20
2010,06,01,00,20,6.00
2010,06,01,00,21,2.10
2010,06,01,00,22,0.10
2010,06,01,00,23,0.30
2010,06,01,00,24,1.10
2010,06,01,00,25,2.60
2010,06,01,00,26,0.20
2010,06,01,00,27,0.10
2010,06,01,00,28,0.00
2010,06,01,00,29,0.50
2010,06,01,00,30,5.30
2010,06,01,00,31,2.10
2010,06,01,00,32,0.00
2010,06,01,00,33,0.00
2010,06,01,00,34,0.20
2010,06,01,00,35,0.10
2010,06,01,00,36,0.60
2010,06,01,00,37,1.90
2010,06,01,00,38,1.60
2010,06,01,00,39,1.70
2010,06,01,00,40,1.70
2010,06,01,00,41,3.20
2010,06,01,00,42,2.20
2010,06,01,00,43,3.50
2010,06,01,00,44,4.20
2010,06,01,00,45,3.80
2010,06,01,00,46,4.10
2010,06,01,00,47,3.10
2010,06,01,00,48,3.60
2010,06,01,00,49,0.80
2010,06,01,00,50,2.80
2010,06,01,00,51,3.80
2010,06,01,00,52,3.10
2010,06,01,00,53,4.60
2010,06,01,00,54,3.00
2010,06,01,00,55,3.10
2010,06,01,00,56,2.80
2010,06,01,00,57,2.20
2010,06,01,00,58,1.30
2010,06,01,00,59,3.80
2010,06,01,01,00,2.70
2010,06,01,01,01,0.60
2010,06,01,01,02,2.80
2010,06,01,01,03,0.30
2010,06,01,01,04,1.40
2010,06,01,01,05,3.00
2010,06,01,01,06,3.50
2010,06,01,01,07,3.30
2010,06,01,01,08,1.90
2010,06,01,01,09,2.40
2010,06,01,01,10,4.30
2010,06,01,01,11,5.50
2010,06,01,01,12,3.20
2010,06,01,01,13,3.80
2010,06,01,01,14,3.50
2010,06,01,01,15,2.70
2010,06,01,01,16,3.70
2010,06,01,01,17,2.30
2010,06,01,01,18,3.10
2010,06,01,01,19,2.60
2010,06,01,01,20,0.20
2010,06,01,01,21,1.40
2010,06,01,01,22,1.60
2010,06,01,01,23,0.40
2010,06,01,01,24,0.30
2010,06,01,01,25,4.00
2010,06,01,01,26,2.50
2010,06,01,01,27,2.50
2010,06,01,01,28,1.80
2010,06,01,01,29,2.60
2010,06,01,01,30,2.00
2010,06,01,01,31,1.40
2010,06,01,01,32,3.60
2010,06,01,01,33,3.50
2010,06,01,01,34,3.70
2010,06,01,01,35,4.70
2010,06,01,01,36,5.20
2010,06,01,01,37,3.00
2010,06,01,01,38,4.00
2010,06,01,01,39,4.50
2010,06,01,01,40,3.30
2010,06,01,01,41,0.50
2010,06,01,01,42,4.10
2010,06,01,01,43,3.10
2010,06,01,01,44,2.40
2010,06,01,01,45,3.90
2010,06,01,01,46,4.70
2010,06,01,01,47,4.40
2010,06,01,01,48,4.00
2010,06,01,01,49,3.60
2010,06,01,01,50,1.90
2010,06,01,01,51,2.90
2010,06,01,01,52,3.80
2010,06,01,01,53,3.90
2010,06,01,01,54,2.50
2010,06,01,01,55,1.80
2010,06,01,01,56,3.20
2010,06,01,01,57,1.90
2010,06,01,01,58,2.90
2010,06,01,01,59,1.80
2010,06,01,02,00,2.90
2010,06,01,02,01,4.90
2010,06,01,02,02,2.20
2010,06,01,02,03,3.30
2010,06,01,02,04,3.80
2010,06,01,02,05,3.30
2010,06,01,02,06,1.40
2010,06,01,02,07,0.80
2010,06,01,02,08,1.60
2010,06,01,02,09,4.00
2010,06,01,02,10,3.20
2010,06,01,02,11,3.60
2010,06,01,02,12,3.50
2010,06,01,02,13,3.60
2010,06,01,02,14,4.80
2010,06,01,02,15,4.80
2010,06,01,02,16,4.10
2010,06,01,02,17,3.80
2010,06,01,02,18,5.10
2010,06,01,02,19,2.50
2010,06,01,02,20,4.10
2010,06,01,02,21,3.90
2010,06,01,02,22,1.10
2010,06,01,02,23,0.30
2010,06,01,02,24,2.80
2010,06,01,02,25,2.40
2010,06,01,02,26,4.50
2010,06,01,02,27,4.10
2010,06,01,02,28,2.40
2010,06,01,02,29,2.50
2010,06,01,02,30,0.10
2010,06,01,02,31,0.20
2010,06,01,02,32,3.90
2010,06,01,02,33,2.20
2010,06,01,02,34,5.80
2010,06,01,02,35,4.20
2010,06,01,02,36,2.00
2010,06,01,02,37,4.30
2010,06,01,02,38,2.10
2010,06,01,02,39,4.70
2010,06,01,02,40,2.60
2010,06,01,02,41,0.50
2010,06,01,02,42,1.30
2010,06,01,02,43,0.10
2010,06,01,02,44,0.10
2010,06,01,02,45,3.50
2010,06,01,02,46,0.90
2010,06,01,02,47,2.80
2010,06,01,02,48,1.00
2010,06,01,02,49,3.70
2010,06,01,02,50,3.10
2010,06,01,02,51,3.60
2010,06,01,02,52,2.70
2010,06,01,02,53,0.70
2010,06,01,02,54,3.50
2010,06,01,02,55,2.40
2010,06,01,02,56,2.00
2010,06,01,02,57,2.60
2010,06,01,02,58,1.70
2010,06,01,02,59,1.40
2010,06,01,03,00,1.00
2010,06,01,03,01,2.50
2010,06,01,03,02,5.00
2010,06,01,03,03,4.50
2010,06,01,03,04,4.60
2010,06,01,03,05,6.70
2010,06,01,03,06,7.20
2010,06,01,03,07,5.10
2010,06,01,03,08,6.50
2010,06,01,03,09,2.70
2010,06,01,03,10,5.30
2010,06,01,03,11,5.90
2010,06,01,03,12,2.10
2010,06,01,03,13,3.20
2010,06,01,03,14,4.80
2010,06,01,03,15,3.40
2010,06,01,03,16,5.30
2010,06,01,03,17,4.70
2010,06,01,03,18,3.00
2010,06,01,03,19,3.50
2010,06,01,03,20,1.70
2010,06,01,03,21,6.00
2010,06,01,03,22,7.00
2010,06,01,03,23,6.40
2010,06,01,03,24,3.50
2010,06,01,03,25,4.30
2010,06,01,03,26,6.30
2010,06,01,03,27,9.60
2010,06,01,03,28,7.10
2010,06,01,03,29,8.30
2010,06,01,03,30,8.20
2010,06,01,03,31,8.60
2010,06,01,03,32,9.50
2010,06,01,03,33,9.10
2010,06,01,03,34,6.00
2010,06,01,03,35,5.50
2010,06,01,03,36,7.00
2010,06,01,03,37,8.30
2010,06,01,03,38,7.60
2010,06,01,03,39,8.40
2010,06,01,03,40,7.40
2010,06,01,03,41,6.80
2010,06,01,03,42,5.60
2010,06,01,03,43,5.80
2010,06,01,03,44,9.60
2010,06,01,03,45,6.20
2010,06,01,03,46,4.50
2010,06,01,03,47,8.50
2010,06,01,03,48,7.00
2010,06,01,03,49,4.60
2010,06,01,03,50,5.80
2010,06,01,03,51,6.90
2010,06,01,03,52,6.50
2010,06,01,03,53,5.40
2010,06,01,03,54,5.10
2010,06,01,03,55,2.60
2010,06,01,03,56,3.60
2010,06,01,03,57,3.80
2010,06,01,03,58,4.90
2010,06,01,03,59,6.70
2010,06,01,04,00,6.70
2010,06,01,04,01,7.00
2010,06,01,04,02,7.50
2010,06,01,04,03,5.80
2010,06,01,04,04,4.80
2010,06,01,04,05,5.70
2010,06,01,04,06,6.90
2010,06,01,04,07,6.80
2010,06,01,04,08,6.50
2010,06,01,04,09,7.60
2010,06,01,04,10,6.40
2010,06,01,04,11,6.00
2010,06,01,04,12,6.60
2010,06,01,04,13,3.70
2010,06,01,04,14,3.80
2010,06,01,04,15,3.70
2010,06,01,04,16,4.30
2010,06,01,04,17,3.00
2010,06,01,04,18,2.40
2010,06,01,04,19,2.80
2010,06,01,04,20,0.40
2010,06,01,04,21,2.40
2010,06,01,04,22,4.70
2010,06,01,04,23,2.80
2010,06,01,04,24,4.80
2010,06,01,04,25,4.70
2010,06,01,04,26,3.20
2010,06,01,04,27,0.80
2010,06,01,04,28,2.10
2010,06,01,04,29,4.20
2010,06,01,04,30,1.20
2010,06,01,04,31,3.00
2010,06,01,04,32,2.20
2010,06,01,04,33,0.70
2010,06,01,04,34,3.60
2010,06,01,04,35,2.10
2010,06,01,04,36,3.80
2010,06,01,04,37,2.50
2010,06,01,04,38,1.00
2010,06,01,04,39,0.40
2010,06,01,04,40,0.80
2010,06,01,04,41,2.90
2010,06,01,04,42,2.00
2010,06,01,04,43,0.90
2010,06,01,04,44,1.70
2010,06,01,04,45,2.20
2010,06,01,04,46,1.20
2010,06,01,04,47,0.80
2010,06,01,04,48,1.00
2010,06,01,04,49,1.60
2010,06,01,04,50,2.30
2010,06,01,04,51,1.40
2010,06,01,04,52,0.40
2010,06,01,04,53,1.60
2010,06,01,04,54,1.00
2010,06,01,04,55,3.30
2010,06,01,04,56,1.50
2010,06,01,04,57,1.90
2010,06,01,04,58,1.90
2010,06,01,04,59,2.00
2010,06,01,05,00,1.70
2010,06,01,05,01,1.80
2010,06,01,05,02,2.00
2010,06,01,05,03,4.00
2010,06,01,05,04,3.50
2010,06,01,05,05,2.30
2010,06,01,05,06,4.50
2010,06,01,05,07,1.20
2010,06,01,05,08,1.90
2010,06,01,05,09,1.00
2010,06,01,05,10,1.60
2010,06,01,05,11,2.80
2010,06,01,05,12,3.20
2010,06,01,05,13,2.10
2010,06,01,05,14,2.00
2010,06,01,05,15,0.90
2010,06,01,05,16,0.90
2010,06,01,05,17,3.50
2010,06,01,05,18,3.00
2010,06,01,05,19,3.00
2010,06,01,05,20,2.00
2010,06,01,05,21,1.70
2010,06,01,05,22,1.50
2010,06,01,05,23,0.20
2010,06,01,05,24,1.40
2010,06,01,05,25,2.50
2010,06,01,05,26,0.60
2010,06,01,05,27,0.60
2010,06,01,05,28,0.20
2010,06,01,05,29,2.90
2010,06,01,05,30,3.10
2010,06,01,05,31,0.00
2010,06,01,05,32,0.10
2010,06,01,05,33,0.00
2010,06,01,05,34,0.00
2010,06,01,05,35,0.80
2010,06,01,05,36,0.00
2010,06,01,05,37,0.00
2010,06,01,05,38,0.00
2010,06,01,05,39,0.00
2010,06,01,05,40,0.00
2010,06,01,05,41,0.00
2010,06,01,05,42,0.40
2010,06,01,05,43,0.20
2010,06,01,05,44,0.20
2010,06,01,05,45,0.80
2010,06,01,05,46,0.00
2010,06,01,05,47,1.40
2010,06,01,05,48,0.60
2010,06,01,05,49,0.70
2010,06,01,05,50,0.50
2010,06,01,05,51,0.20
2010,06,01,05,52,0.10
2010,06,01,05,53,0.40
2010,06,01,05,54,0.00
2010,06,01,05,55,0.30
2010,06,01,05,56,0.00
2010,06,01,05,57,0.00
2010,06,01,05,58,0.00
2010,06,01,05,59,0.00
2010,06,01,06,00,1.80
2010,06,01,06,01,0.70
2010,06,01,06,02,0.00
2010,06,01,06,03,0.00
2010,06,01,06,04,0.00
2010,06,01,06,05,0.00
2010,06,01,06,06,0.00
2010,06,01,06,07,0.00
2010,06,01,06,08,0.00
2010,06,01,06,09,0.00
2010,06,01,06,10,0.00
2010,06,01,06,11,0.00
2010,06,01,06,12,0.00
2010,06,01,06,13,0.00
2010,06,01,06,14,0.00
2010,06,01,06,15,0.00
2010,06,01,06,16,0.00
2010,06,01,06,17,0.00
2010,06,01,06,18,0.00
2010,06,01,06,19,0.00
2010,06,01,06,20,0.00
2010,06,01,06,21,0.00
2010,06,01,06,22,0.00
2010,06,01,06,23,0.00
2010,06,01,06,24,0.00
2010,06,01,06,25,0.00
2010,06,01,06,26,0.00
2010,06,01,06,27,0.00
2010,06,01,06,28,0.00
2010,06,01,06,29,0.00
2010,06,01,06,30,0.00
2010,06,01,06,31,0.00
2010,06,01,06,32,0.00
2010,06,01,06,33,0.00
2010,06,01,06,34,0.00
2010,06,01,06,35,0.00
2010,06,01,06,36,0.00
2010,06,01,06,37,0.00
2010,06,01,06,38,0.00
2010,06,01,06,39,0.00
2010,06,01,06,40,0.00
2010,06,01,06,41,0.00
2010,06,01,06,42,0.00
2010,06,01,06,43,0.00
2010,06,01,06,44,0.00
2010,06,01,06,45,0.00
2010,06,01,06,46,0.00
2010,06,01,06,47,0.00
2010,06,01,06,48,0.00
2010,06,01,06,49,0.00
2010,06,01,06,50,0.00
2010,06,01,06,51,0.00
2010,06,01,06,52,0.00
2010,06,01,06,53,0.00
2010,06,01,06,54,0.00
2010,06,01,06,55,0.00
2010,06,01,06,56,0.00
2010,06,01,06,57,0.00
2010,06,01,06,58,0.00
2010,06,01,06,59,0.00
2010,06,01,07,00,0.00
2010,06,01,07,01,0.00
2010,06,01,07,02,0.00
2010,06,01,07,03,0.00
2010,06,01,07,04,0.00
2010,06,01,07,05,0.00
2010,06,01,07,06,0.00
2010,06,01,07,07,0.00
2010,06,01,07,08,0.00
2010,06,01,07,09,0.00
2010,06,01,07,10,0.00
2010,06,01,07,11,0.00
2010,06,01,07,12,0.00
2010,06,01,07,13,0.00
2010,06,01,07,14,0.00
2010,06,01,07,15,0.00
2010,06,01,07,16,0.00
2010,06,01,07,17,0.20
2010,06,01,07,18,0.10
2010,06,01,07,19,0.00
2010,06,01,07,20,0.00
2010,06,01,07,21,0.00
2010,06,01,07,22,0.00
2010,06,01,07,23,0.00
2010,06,01,07,24,0.00
2010,06,01,07,25,0.00
2010,06,01,07,26,0.00
2010,06,01,07,27,0.00
2010,06,01,07,28,0.00
2010,06,01,07,29,0.00
2010,06,01,07,30,0.00
2010,06,01,07,31,0.00
2010,06,01,07,32,0.00
2010,06,01,07,33,0.10
2010,06,01,07,34,0.60
2010,06,01,07,35,0.00
2010,06,01,07,36,0.30
2010,06,01,07,37,2.70
2010,06,01,07,38,3.00
2010,06,01,07,39,1.10
2010,06,01,07,40,0.20
2010,06,01,07,41,0.10
2010,06,01,07,42,0.60
2010,06,01,07,43,3.50
2010,06,01,07,44,3.00
2010,06,01,07,45,0.70
2010,06,01,07,46,0.10
2010,06,01,07,47,0.40
2010,06,01,07,48,0.70
2010,06,01,07,49,0.40
2010,06,01,07,50,1.80
2010,06,01,07,51,1.20
2010,06,01,07,52,1.10
2010,06,01,07,53,4.70
2010,06,01,07,54,1.50
2010,06,01,07,55,2.00
2010,06,01,07,56,1.90
2010,06,01,07,57,1.10
2010,06,01,07,58,0.10
2010,06,01,07,59,1.20
2010,06,01,08,00,0.20
2010,06,01,08,01,0.10
2010,06,01,08,02,0.00
2010,06,01,08,03,2.40
2010,06,01,08,04,3.40
2010,06,01,08,05,0.90
2010,06,01,08,06,1.30
2010,06,01,08,07,1.40
2010,06,01,08,08,0.70
2010,06,01,08,09,0.90
2010,06,01,08,10,1.70
2010,06,01,08,11,1.10
2010,06,01,08,12,2.80
2010,06,01,08,13,1.30
2010,06,01,08,14,3.90
2010,06,01,08,15,4.70
2010,06,01,08,16,1.30
2010,06,01,08,17,1.10
2010,06,01,08,18,5.30
2010,06,01,08,19,6.70
2010,06,01,08,20,2.70
2010,06,01,08,21,3.50
2010,06,01,08,22,3.20
2010,06,01,08,23,4.70
2010,06,01,08,24,4.50
2010,06,01,08,25,3.40
2010,06,01,08,26,1.50
2010,06,01,08,27,0.80
2010,06,01,08,28,3.30
2010,06,01,08,29,0.80
2010,06,01,08,30,3.80
2010,06,01,08,31,3.60
2010,06,01,08,32,1.00
2010,06,01,08,33,4.50
2010,06,01,08,34,4.50
2010,06,01,08,35,5.10
2010,06,01,08,36,5.20
2010,06,01,08,37,5.80
2010,06,01,08,38,6.60
2010,06,01,08,39,4.10
2010,06,01,08,40,2.80
2010,06,01,08,41,3.40
2010,06,01,08,42,4.50
2010,06,01,08,43,3.70
2010,06,01,08,44,6.30
2010,06,01,08,45,5.20
2010,06,01,08,46,5.80
2010,06,01,08,47,4.80
2010,06,01,08,48,3.50
2010,06,01,08,49,0.90
2010,06,01,08,50,5.60
2010,06,01,08,51,5.20
2010,06,01,08,52,4.70
2010,06,01,08,53,4.50
2010,06,01,08,54,1.40
2010,06,01,08,55,4.20
2010,06,01,08,56,4.00
2010,06,01,08,57,5.80
2010,06,01,08,58,5.30
2010,06,01,08,59,5.90
2010,06,01,09,00,5.80
2010,06,01,09,01,4.70
2010,06,01,09,02,4.10
2010,06,01,09,03,3.70
2010,06,01,09,04,3.00
2010,06,01,09,05,3.00
2010,06,01,09,06,6.40
2010,06,01,09,07,4.00
2010,06,01,09,08,1.40
2010,06,01,09,09,1.40
2010,06,01,09,10,4.10
2010,06,01,09,11,4.70
2010,06,01,09,12,5.00
2010,06,01,09,13,7.50
2010,06,01,09,14,5.80
2010,06,01,09,15,5.20
2010,06,01,09,16,5.30
2010,06,01,09,17,4.50
2010,06,01,09,18,4.00
2010,06,01,09,19,7.90
2010,06,01,09,20,6.70
2010,06,01,09,21,8.90
2010,06,01,09,22,8.30
2010,06,01,09,23,6.40
2010,06,01,09,24,8.60
2010,06,01,09,25,7.90
2010,06,01,09,26,6.40
2010,06,01,09,27,7.10
2010,06,01,09,28,6.60
2010,06,01,09,29,2.70
2010,06,01,09,30,1.50
2010,06,01,09,31,5.50
2010,06,01,09,32,6.40
2010,06,01,09,33,4.90
2010,06,01,09,34,6.70
2010,06,01,09,35,7.80
2010,06,01,09,36,6.50
2010,06,01,09,37,2.80
2010,06,01,09,38,5.80
2010,06,01,09,39,4.80
2010,06,01,09,40,4.90
2010,06,01,09,41,7.50
2010,06,01,09,42,4.50
2010,06,01,09,43,7.80
2010,06,01,09,44,6.30
2010,06,01,09,45,2.70
2010,06,01,09,46,3.70
2010,06,01,09,47,3.20
2010,06,01,09,48,5.80
2010,06,01,09,49,5.00
2010,06,01,09,50,7.90
2010,06,01,09,51,8.40
2010,06,01,09,52,10.10
2010,06,01,09,53,8.60
2010,06,01,09,54,6.60
2010,06,01,09,55,8.30
2010,06,01,09,56,8.70
2010,06,01,09,57,9.50
2010,06,01,09,58,8.40
2010,06,01,09,59,9.10
2010,06,01,10,00,7.60
2010,06,01,10,01,6.80
2010,06,01,10,02,2.10
2010,06,01,10,03,0.80
2010,06,01,10,04,4.10
2010,06,01,10,05,7.40
2010,06,01,10,06,8.30
2010,06,01,10,07,9.10
2010,06,01,10,08,8.10
2010,06,01,10,09,7.00
2010,06,01,10,10,6.30
2010,06,01,10,11,6.30
2010,06,01,10,12,7.40
2010,06,01,10,13,6.80
2010,06,01,10,14,8.10
2010,06,01,10,15,7.60
2010,06,01,10,16,9.10
2010,06,01,10,17,8.60
2010,06,01,10,18,8.80
2010,06,01,10,19,5.80
2010,06,01,10,20,5.90
2010,06,01,10,21,1.90
2010,06,01,10,22,3.60
2010,06,01,10,23,6.90
2010,06,01,10,24,5.00
2010,06,01,10,25,4.50
2010,06,01,10,26,5.90
2010,06,01,10,27,7.30
2010,06,01,10,28,6.70
2010,06,01,10,29,6.40
2010,06,01,10,30,7.20
2010,06,01,10,31,7.90
2010,06,01,10,32,7.40
2010,06,01,10,33,7.70
2010,06,01,10,34,5.80
2010,06,01,10,35,5.40
2010,06,01,10,36,9.30
2010,06,01,10,37,6.50
2010,06,01,10,38,9.40
2010,06,01,10,39,8.60
2010,06,01,10,40,10.00
2010,06,01,10,41,9.60
2010,06,01,10,42,6.40
2010,06,01,10,43,9.60
2010,06,01,10,44,8.30
2010,06,01,10,45,7.00
2010,06,01,10,46,8.80
2010,06,01,10,47,5.80
2010,06,01,10,48,8.30
2010,06,01,10,49,8.40
2010,06,01,10,50,9.10
2010,06,01,10,51,5.90
2010,06,01,10,52,6.30
2010,06,01,10,53,2.80
2010,06,01,10,54,4.30
2010,06,01,10,55,7.50
2010,06,01,10,56,7.30
2010,06,01,10,57,5.10
2010,06,01,10,58,3.30
2010,06,01,10,59,2.40
2010,06,01,11,00,5.10
2010,06,01,11,01,5.60
2010,06,01,11,02,6.90
2010,06,01,11,03,6.10
2010,06,01,11,04,5.60
2010,06,01,11,05,6.50
2010,06,01,11,06,10.00
2010,06,01,11,07,8.50
2010,06,01,11,08,5.40
2010,06,01,11,09,5.80
2010,06,01,11,10,5.60
2010,06,01,11,11,8.60
2010,06,01,11,12,10.80
2010,06,01,11,13,12.50
2010,06,01,11,14,10.20
2010,06,01,11,15,9.90
2010,06,01,11,16,7.00
2010,06,01,11,17,4.40
2010,06,01,11,18,7.20
2010,06,01,11,19,8.90
2010,06,01,11,20,7.50
2010,06,01,11,21,6.10
2010,06,01,11,22,7.00
2010,06,01,11,23,9.20
2010,06,01,11,24,8.40
2010,06,01,11,25,8.90
2010,06,01,11,26,8.60
2010,06,01,11,27,8.10
2010,06,01,11,28,11.20
2010,06,01,11,29,10.60
2010,06,01,11,30,10.50
2010,06,01,11,31,7.70
2010,06,01,11,32,5.90
2010,06,01,11,33,8.60
2010,06,01,11,34,10.20
2010,06,01,11,35,10.60
2010,06,01,11,36,10.40
2010,06,01,11,37,12.30
2010,06,01,11,38,10.90
2010,06,01,11,39,9.70
2010,06,01,11,40,8.10
2010,06,01,11,41,9.50
2010,06,01,11,42,11.30
2010,06,01,11,43,11.10
2010,06,01,11,44,8.40
2010,06,01,11,45,9.20
2010,06,01,11,46,8.60
2010,06,01,11,47,10.00
2010,06,01,11,48,11.80
2010,06,01,11,49,8.60
2010,06,01,11,50,8.80
2010,06,01,11,51,9.70
2010,06,01,11,52,8.30
2010,06,01,11,53,6.90
2010,06,01,11,54,6.30
2010,06,01,11,55,8.10
2010,06,01,11,56,11.70
2010,06,01,11,57,11.80
2010,06,01,11,58,11.00
2010,06,01,11,59,8.90
2010,06,01,12,00,11.10
2010,06,01,12,01,11.70
2010,06,01,12,02,9.40
2010,06,01,12,03,11.10
2010,06,01,12,04,10.80
2010,06,01,12,05,7.50
2010,06,01,12,06,8.90
2010,06,01,12,07,8.90
2010,06,01,12,08,9.70
2010,06,01,12,09,7.60
2010,06,01,12,10,9.30
2010,06,01,12,11,9.80
2010,06,01,12,12,9.20
2010,06,01,12,13,15.10
2010,06,01,12,14,13.30
2010,06,01,12,15,8.70
2010,06,01,12,16,7.70
2010,06,01,12,17,9.30
2010,06,01,12,18,9.40
2010,06,01,12,19,7.40
2010,06,01,12,20,10.00
2010,06,01,12,21,6.60
2010,06,01,12,22,10.60
2010,06,01,12,23,8.00
2010,06,01,12,24,5.50
2010,06,01,12,25,6.00
2010,06,01,12,26,4.10
2010,06,01,12,27,4.80
2010,06,01,12,28,6.30
2010,06,01,12,29,7.00
2010,06,01,12,30,4.40
2010,06,01,12,31,3.30
2010,06,01,12,32,7.00
2010,06,01,12,33,5.60
2010,06,01,12,34,8.50
2010,06,01,12,35,2.80
2010,06,01,12,36,5.10
2010,06,01,12,37,10.50
2010,06,01,12,38,8.70
2010,06,01,12,39,6.30
2010,06,01,12,40,7.90
2010,06,01,12,41,4.70
2010,06,01,12,42,4.20
2010,06,01,12,43,5.60
2010,06,01,12,44,7.10
2010,06,01,12,45,7.20
2010,06,01,12,46,7.40
2010,06,01,12,47,7.50
2010,06,01,12,48,7.20
2010,06,01,12,49,8.00
2010,06,01,12,50,9.00
2010,06,01,12,51,8.00
2010,06,01,12,52,13.60
2010,06,01,12,53,8.10
2010,06,01,12,54,9.20
2010,06,01,12,55,10.40
2010,06,01,12,56,10.00
2010,06,01,12,57,7.00
2010,06,01,12,58,11.60
2010,06,01,12,59,8.00
2010,06,01,13,00,5.30
2010,06,01,13,01,3.70
2010,06,01,13,02,7.50
2010,06,01,13,03,5.20
2010,06,01,13,04,7.60
2010,06,01,13,05,4.90
2010,06,01,13,06,9.00
2010,06,01,13,07,9.30
2010,06,01,13,08,12.80
2010,06,01,13,09,8.60
2010,06,01,13,10,8.10
2010,06,01,13,11,3.80
2010,06,01,13,12,7.40
2010,06,01,13,13,8.80
2010,06,01,13,14,6.10
2010,06,01,13,15,8.10
2010,06,01,13,16,11.10
2010,06,01,13,17,7.90
2010,06,01,13,18,8.10
2010,06,01,13,19,9.10
2010,06,01,13,20,7.40
2010,06,01,13,21,5.70
2010,06,01,13,22,10.70
2010,06,01,13,23,7.80
2010,06,01,13,24,8.70
2010,06,01,13,25,8.10
2010,06,01,13,26,13.10
2010,06,01,13,27,11.60
2010,06,01,13,28,10.30
2010,06,01,13,29,11.40
2010,06,01,13,30,9.60
2010,06,01,13,31,8.00
2010,06,01,13,32,4.50
2010,06,01,13,33,10.50
2010,06,01,13,34,13.20
2010,06,01,13,35,9.70
2010,06,01,13,36,9.20
2010,06,01,13,37,12.10
2010,06,01,13,38,11.20
2010,06,01,13,39,13.70
2010,06,01,13,40,14.00
2010,06,01,13,41,11.60
2010,06,01,13,42,13.20
2010,06,01,13,43,11.80
2010,06,01,13,44,9.70
2010,06,01,13,45,10.90
2010,06,01,13,46,11.30
2010,06,01,13,47,8.10
2010,06,01,13,48,10.90
2010,06,01,13,49,9.40
2010,06,01,13,50,9.80
2010,06,01,13,51,14.00
2010,06,01,13,52,12.70
2010,06,01,13,53,13.40
2010,06,01,13,54,18.60
2010,06,01,13,55,18.00
2010,06,01,13,56,16.20
2010,06,01,13,57,14.10
2010,06,01,13,58,11.90
2010,06,01,13,59,10.30
2010,06,01,14,00,13.40
2010,06,01,14,01,10.50
2010,06,01,14,02,8.40
2010,06,01,14,03,5.90
2010,06,01,14,04,6.00
2010,06,01,14,05,10.10
2010,06,01,14,06,13.60
2010,06,01,14,07,11.40
2010,06,01,14,08,11.10
2010,06,01,14,09,12.50
2010,06,01,14,10,13.70
2010,06,01,14,11,11.00
2010,06,01,14,12,6.90
2010,06,01,14,13,11.20
2010,06,01,14,14,7.40
2010,06,01,14,15,7.40
2010,06,01,14,16,11.70
2010,06,01,14,17,9.70
2010,06,01,14,18,9.90
2010,06,01,14,19,6.30
2010,06,01,14,20,5.20
2010,06,01,14,21,7.30
2010,06,01,14,22,7.50
2010,06,01,14,23,7.20
2010,06,01,14,24,7.30
2010,06,01,14,25,10.50
2010,06,01,14,26,8.30
2010,06,01,14,27,7.90
2010,06,01,14,28,13.60
2010,06,01,14,29,12.90
2010,06,01,14,30,8.50
2010,06,01,14,31,5.60
2010,06,01,14,32,6.50
2010,06,01,14,33,6.60
2010,06,01,14,34,7.10
2010,06,01,14,35,8.80
2010,06,01,14,36,8.80
2010,06,01,14,37,11.00
2010,06,01,14,38,11.60
2010,06,01,14,39,8.00
2010,06,01,14,40,5.00
2010,06,01,14,41,8.80
2010,06,01,14,42,9.00
2010,06,01,14,43,7.00
2010,06,01,14,44,6.10
2010,06,01,14,45,3.40
2010,06,01,14,46,6.80
2010,06,01,14,47,5.40
2010,06,01,14,48,7.80
2010,06,01,14,49,6.40
2010,06,01,14,50,6.70
2010,06,01,14,51,6.20
2010,06,01,14,52,8.10
2010,06,01,14,53,8.90
2010,06,01,14,54,6.50
2010,06,01,14,55,8.90
2010,06,01,14,56,8.80
2010,06,01,14,57,10.40
2010,06,01,14,58,6.60
2010,06,01,14,59,10.50
2010,06,01,15,00,7.10
2010,06,01,15,01,8.40
2010,06,01,15,02,5.50
2010,06,01,15,03,6.90
2010,06,01,15,04,1.50
2010,06,01,15,05,6.40
2010,06,01,15,06,7.50
2010,06,01,15,07,4.80
2010,06,01,15,08,2.80
2010,06,01,15,09,2.50
2010,06,01,15,10,3.90
2010,06,01,15,11,7.10
2010,06,01,15,12,6.40
2010,06,01,15,13,4.00
2010,06,01,15,14,4.70
2010,06,01,15,15,6.40
2010,06,01,15,16,5.70
2010,06,01,15,17,4.70
2010,06,01,15,18,3.60
2010,06,01,15,19,8.90
2010,06,01,15,20,6.60
2010,06,01,15,21,3.90
2010,06,01,15,22,8.00
2010,06,01,15,23,7.50
2010,06,01,15,24,7.20
2010,06,01,15,25,5.50
2010,06,01,15,26,6.40
2010,06,01,15,27,7.30
2010,06,01,15,28,6.40
2010,06,01,15,29,8.10
2010,06,01,15,30,5.50
2010,06,01,15,31,6.00
2010,06,01,15,32,8.10
2010,06,01,15,33,7.90
2010,06,01,15,34,6.80
2010,06,01,15,35,4.90
2010,06,01,15,36,4.80
2010,06,01,15,37,4.50
2010,06,01,15,38,6.40
2010,06,01,15,39,4.30
2010,06,01,15,40,0.70
2010,06,01,15,41,1.50
2010,06,01,15,42,1.80
2010,06,01,15,43,0.20
2010,06,01,15,44,0.60
2010,06,01,15,45,5.10
2010,06,01,15,46,6.00
2010,06,01,15,47,2.90
2010,06,01,15,48,5.70
2010,06,01,15,49,4.30
2010,06,01,15,50,3.80
2010,06,01,15,51,6.20
2010,06,01,15,52,6.20
2010,06,01,15,53,4.00
2010,06,01,15,54,1.50
2010,06,01,15,55,5.60
2010,06,01,15,56,7.00
2010,06,01,15,57,6.50
2010,06,01,15,58,5.20
2010,06,01,15,59,3.40
2010,06,01,16,00,6.80
2010,06,01,16,01,6.80
2010,06,01,16,02,6.40
2010,06,01,16,03,9.20
2010,06,01,16,04,7.60
2010,06,01,16,05,6.90
2010,06,01,16,06,6.40
2010,06,01,16,07,6.70
2010,06,01,16,08,5.90
2010,06,01,16,09,3.40
2010,06,01,16,10,5.20
2010,06,01,16,11,5.30
2010,06,01,16,12,6.70
2010,06,01,16,13,6.90
2010,06,01,16,14,4.40
2010,06,01,16,15,5.80
2010,06,01,16,16,6.00
2010,06,01,16,17,5.60
2010,06,01,16,18,6.40
2010,06,01,16,19,7.10
2010,06,01,16,20,5.70
2010,06,01,16,21,3.30
2010,06,01,16,22,5.50
2010,06,01,16,23,3.50
2010,06,01,16,24,1.10
2010,06,01,16,25,5.50
2010,06,01,16,26,4.30
2010,06,01,16,27,3.90
2010,06,01,16,28,5.00
2010,06,01,16,29,4.40
2010,06,01,16,30,3.90
2010,06,01,16,31,4.10
2010,06,01,16,32,4.90
2010,06,01,16,33,5.00
2010,06,01,16,34,6.70
2010,06,01,16,35,6.60
2010,06,01,16,36,2.50
2010,06,01,16,37,4.00
2010,06,01,16,38,3.50
2010,06,01,16,39,3.60
2010,06,01,16,40,5.20
2010,06,01,16,41,2.50
2010,06,01,16,42,2.00
2010,06,01,16,43,1.90
2010,06,01,16,44,1.40
2010,06,01,16,45,1.50
2010,06,01,16,46,0.50
2010,06,01,16,47,3.00
2010,06,01,16,48,2.50
2010,06,01,16,49,2.80
2010,06,01,16,50,0.80
2010,06,01,16,51,0.60
2010,06,01,16,52,1.40
2010,06,01,16,53,0.80
2010,06,01,16,54,2.70
2010,06,01,16,55,0.20
2010,06,01,16,56,0.10
2010,06,01,16,57,0.00
2010,06,01,16,58,0.00
2010,06,01,16,59,0.10
2010,06,01,17,00,1.00
2010,06,01,17,01,0.50
2010,06,01,17,02,1.40
2010,06,01,17,03,0.30
2010,06,01,17,04,2.70
2010,06,01,17,05,1.00
2010,06,01,17,06,3.60
2010,06,01,17,07,3.70
2010,06,01,17,08,0.30
2010,06,01,17,09,0.60
2010,06,01,17,10,1.90
2010,06,01,17,11,4.70
2010,06,01,17,12,4.80
2010,06,01,17,13,3.60
2010,06,01,17,14,3.00
2010,06,01,17,15,1.50
2010,06,01,17,16,3.10
2010,06,01,17,17,5.10
2010,06,01,17,18,0.60
2010,06,01,17,19,3.00
2010,06,01,17,20,1.70
2010,06,01,17,21,1.40
2010,06,01,17,22,3.10
2010,06,01,17,23,3.70
2010,06,01,17,24,3.00
2010,06,01,17,25,5.40
2010,06,01,17,26,6.80
2010,06,01,17,27,6.80
2010,06,01,17,28,1.60
2010,06,01,17,29,4.00
2010,06,01,17,30,3.20
2010,06,01,17,31,2.00
2010,06,01,17,32,3.40
2010,06,01,17,33,4.20
2010,06,01,17,34,7.40
2010,06,01,17,35,5.10
2010,06,01,17,36,3.40
2010,06,01,17,37,2.10
2010,06,01,17,38,0.10
2010,06,01,17,39,0.10
2010,06,01,17,40,0.00
2010,06,01,17,41,0.60
2010,06,01,17,42,9.00
2010,06,01,17,43,5.70
2010,06,01,17,44,1.80
2010,06,01,17,45,2.90
2010,06,01,17,46,5.10
2010,06,01,17,47,3.00
2010,06,01,17,48,4.10
2010,06,01,17,49,5.10
2010,06,01,17,50,3.10
2010,06,01,17,51,3.00
2010,06,01,17,52,1.90
2010,06,01,17,53,1.30
2010,06,01,17,54,4.60
2010,06,01,17,55,2.50
2010,06,01,17,56,6.40
2010,06,01,17,57,0.90
2010,06,01,17,58,6.10
2010,06,01,17,59,4.00
2010,06,01,18,00,6.30
2010,06,01,18,01,2.10
2010,06,01,18,02,2.20
2010,06,01,18,03,8.60